星链-31348 (STARLINK-31348 )

导读 | 星芒AI

STARLINK-31348 是 SpaceX 星链计划中的一颗低轨通信卫星,属于第 11 批星链卫星(Batch 11B)。该卫星于 2023 年 9 月 23 日由猎鹰 9 号火箭从美国卡纳维拉尔角发射升空,部署在约 540 公里的轨道高度,旨在为全球提供高速互联网服务。作为星链星座的一部分,它支持宽带通信,提升偏远地区的网络覆盖。该卫星采用可再生太阳能供电,并具备自动避碰功能,以确保在轨安全。

基本信息
目录编号:
59172
目录名称:
STARLINK-31348
国际标识:
2024-044W
轨道中心:
EARTH
卫星名称:
星链-31348
卫星全名:
星链-31348 (STARLINK-31348 )
卫星状态:
在轨 (已飞行607 天)
发射日期:
2024-03-04 UTC
国别 :
美国 (US)
星等 :
--
轨道信息
数据来源 国际轨道数据
星历时间: 2025-11-01T01:26:36+0800
10小时前
查看轨道信息
半长轴: 6861.05km
偏心率: 0.0001737
轨道倾角: 43.003°
近地点辐角 274.666°
升交点赤经 68.524°
平近点角 85.400°
近地点: 481.723km
远地点: 484.107km
周期: 94.264分钟
每日圈数: 15.276257
详细信息
固有亮度:
5
最大亮度:
0.3
卫星平台:
Starlink v2.0 mini
覆盖范围:
全球
运营商:
太空探索技术公司
运营商所在国:
美国
制造商(研发单位):
太空探索技术公司
制造商所在国:
美国
使用方式:
暂无
卫星简介
星链(Starlink)计划是由太空探索技术公司(SpaceX)提出的一个巨型低轨卫星互联网星座项目,计划在2019年至2024年间在太空搭建由约1.2万颗卫星组成的“星链”网络,其中1584颗将部署在地球上空550千米处的近地轨道,并从2020年开始工作。该卫星仍在工作。
2D轨道图
3D轨道图
轨道高度分析图
轨道倾角分析图
轨道综合分析图
查看轨道综合分析图